This is the latest recevied weather packets stored in our database for station/object HB9BTL-13. If no packets are shown the sender has not sent any weather packets the latest 10 day(s).
| Time | Temp. | Humidity | Pressure | Rain* | Wind** | Luminosity | Snow |
|---|---|---|---|---|---|---|---|
| 1787508011 | 23.33° C | 51% | 1020 hPa | - | - | - | - |
| 1787507105 | 23.89° C | 47% | 1020 hPa | - | - | - | - |
| 1787506200 | 24.44° C | 42% | 1020.1 hPa | - | - | - | - |
| 1787505294 | 25° C | 43% | 1020.2 hPa | - | - | - | - |
| 1787504389 | 25° C | 42% | 1020.4 hPa | - | - | - | - |
| 1787503483 | 25.56° C | 43% | 1020.4 hPa | - | - | - | - |
| 1787502578 | 26.11° C | 40% | 1020.4 hPa | - | - | - | - |
| 1787501673 | 26.11° C | 42% | 1020.5 hPa | - | - | - | - |
| 1787500768 | 26.67° C | 40% | 1020.6 hPa | - | - | - | - |
| 1787499863 | 26.67° C | 40% | 1020.6 hPa | - | - | - | - |
| 1787498957 | 26.11° C | 40% | 1020.6 hPa | - | - | - | - |
| 1787498052 | 26.11° C | 39% | 1020.7 hPa | - | - | - | - |
| 1787497146 | 26.11° C | 43% | 1020.6 hPa | - | - | - | - |
| 1787496241 | 26.11° C | 43% | 1020.5 hPa | - | - | - | - |
| 1787495335 | 26.11° C | 42% | 1020.5 hPa | - | - | - | - |
| 1787494430 | 26.11° C | 42% | 1020.7 hPa | - | - | - | - |
| 1787493524 | 26.11° C | 43% | 1020.7 hPa | - | - | - | - |
| 1787492619 | 26.11° C | 44% | 1020.7 hPa | - | - | - | - |
| 1787491713 | 25.56° C | 44% | 1020.8 hPa | - | - | - | - |
| 1787490809 | 25.56° C | 45% | 1020.8 hPa | - | - | - | - |
| 1787489903 | 25° C | 45% | 1021 hPa | - | - | - | - |
| 1787488998 | 25° C | 46% | 1021.1 hPa | - | - | - | - |
| 1787488092 | 24.44° C | 47% | 1021.1 hPa | - | - | - | - |
| 1787487187 | 25° C | 48% | 1021.3 hPa | - | - | - | - |
| 1787486281 | 24.44° C | 49% | 1021.4 hPa | - | - | - | - |
* Rain since midnight (hover to see other rain measurements)
** Current wind speed in m/s (hover to see current wind gust speed)